BEESAT-1 (35933 NORAD) Tracking and Keplerian Element Data

This shows tracking and keplerian element data for the satellite.

Feedback or suggestion? Click here.




ElementValue
Catalog35933
NameBEESAT-1
Epoch Orbit79975
Epoch Day286.63842264
Epoch Year2024
RAAN172.9922
Inclination98.4447
Eccentricity0.0005176
Argument of Perigee344.6021
Mean Anonmoly15.502
Mean Motion14.59515405
Decay Rate4.708E-05
L11 35933U 09051C 24286.63842264 .00004708 00000+0 10011-2 0 9998
L22 35933 98.4447 172.9922 0005176 344.6021 15.5020 14.59515405799751



Live tracking and technical data element details for BEESAT-1 (NORAD 35933). BEESAT-1 can be tracked NOW for your location showing map with azimuth and elevation plus other details from your city location.







IsCatalogInMostPopularTable: catalog: 35933, numindb: 354
Update: records affected: 1



GetName: 35933 BEESAT-1

Hit Count: updated at: Fri, 24 Jan 2025 23:35:47 GMT